Location: Northcutt
(34.7304°N, 84.4305°W)
Time: 15:52:54
(UTC+00:00)

Vanguard 1 - Visible Passes

Search period start: 26 September 2022 00:00
Search period end: 06 October 2022 00:00
Orbit: 649 x 3832 km, 34.2° (Epoch: 25 September)

Date Brightness Start Highest point End Pass type
(mag) Time Alt. Az. Time Alt. Az. Time Alt. Az.
26 Sep 9.5 00:49:36 10° W 00:56:06 79° S 00:58:00 37° ESE visible
27 Sep 9.4 01:10:35 10° W 01:16:43 66° SSW 01:17:34 55° SE visible
28 Sep 9.9 01:31:34 10° W 01:37:08 50° SSW 01:37:08 50° SSW visible
29 Sep 10.8 01:52:37 10° W 01:56:43 32° SW 01:56:43 32° SW visible
29 Sep 10.1 23:50:03 10° W 23:58:35 79° SSW 00:03:37 10° ESE visible
30 Sep 11.6 02:13:50 10° W 02:16:19 20° WSW 02:16:19 20° WSW visible
01 Oct 10.1 00:11:12 10° W 00:19:14 67° SSW 00:23:15 16° ESE visible
01 Oct 12.2 02:35:32 10° WSW 02:35:56 11° WSW 02:35:56 11° WSW visible
02 Oct 10.4 00:32:20 10° W 00:39:47 53° SSW 00:42:52 23° SE visible
03 Oct 10.7 00:53:31 10° W 01:00:13 39° SSW 01:02:33 25° SSE visible
04 Oct 11.1 01:14:52 10° W 01:20:31 27° SW 01:22:15 22° S visible
05 Oct 11.6 01:36:37 10° W 01:40:43 17° SW 01:41:59 16° SSW visible
05 Oct 11.0 23:32:10 10° W 23:42:00 56° SSW 23:47:38 10° SE visible
